Wind_Speed
28 27 26 25 23 22 20 19 19 18 16 15 16 16 15 13 12 12 12 11 10 9 9 9 8 7 7 7 7 6 5 5 5 6 6 6 6 7 7 8 7 7
29 28 27 26 24 23 22 20 19 19 19 18 16 15 15 14 13 13 12 12 11 10 10 10 9 9 9 9 9 8 7 6 6 7 7 7 7 7 8 8 8 8
30 29 28 27 25 24 23 22 21 20 19 16 14 14 14 14 14 14 13 13 12 11 12 12 11 11 11 11 10 9 9 8 7 7 8 8 8 8 8 9 9 9
31 30 29 27 26 25 24 23 21 20 18 15 14 15 16 15 15 15 15 14 13 12 13 14 13 13 12 12 12 10 10 9 9 9 8 8 8 8 9 9 10 10
32 31 30 28 27 26 24 23 21 20 18 17 17 17 17 17 16 16 16 15 14 14 15 15 14 13 13 13 12 11 10 9 8 9 8 8 8 8 9 9 10 10
33 31 30 29 27 26 24 23 22 21 20 19 19 19 18 18 17 17 17 16 15 15 15 15 15 13 13 13 12 11 10 8 8 9 8 8 8 8 8 9 10 10
34 32 30 30 28 27 25 24 23 22 21 21 20 20 19 19 18 17 17 16 16 16 15 16 16 14 13 13 12 11 11 10 10 10 9 8 8 8 9 10 10 11
35 34 32 31 30 28 27 26 24 23 22 22 22 21 21 20 19 17 17 17 17 17 17 17 17 15 14 14 14 13 12 11 10 10 9 9 10 10 10 11 12 12
38 38 35 32 30 29 29 28 25 23 24 24 24 23 22 21 19 18 18 19 18 18 18 18 17 16 16 16 16 15 14 12 11 11 11 11 12 12 13 13 13 14
41 39 35 31 29 29 30 28 25 24 25 24 24 24 23 21 20 20 20 20 20 20 20 19 18 17 17 18 17 16 15 13 13 12 13 13 14 14 15 15 15 15
39 38 35 31 30 30 30 29 26 24 24 24 26 27 25 22 21 21 22 22 21 21 21 20 19 19 18 19 18 17 15 14 14 14 15 15 15 15 16 16 16 17
38 37 35 33 33 33 32 32 31 30 30 30 31 32 28 25 25 25 24 23 22 22 22 21 20 20 20 19 19 17 16 15 15 16 17 16 16 16 17 17 18 18
40 38 35 35 36 35 34 34 34 35 37 37 35 33 30 28 28 26 24 23 23 23 23 22 21 22 21 20 20 19 18 17 17 17 18 18 17 17 17 17 17 18
39 39 37 38 38 36 35 35 35 36 39 39 38 35 32 30 29 27 24 24 24 24 24 23 23 23 22 22 21 20 20 19 18 17 18 18 18 18 18 17 17 18
37 40 39 39 39 39 38 38 38 39 39 40 41 39 34 32 30 27 26 26 26 25 25 25 25 24 23 24 23 21 20 19 18 18 18 19 19 18 18 18 18 18
36 38 37 38 40 41 41 41 41 41 40 41 42 41 38 34 30 28 28 28 26 27 27 26 26 26 25 25 24 21 19 18 18 18 19 19 19 19 19 19 19 19
35 35 35 35 38 41 43 43 42 43 43 43 42 42 39 35 32 30 29 28 27 28 28 27 26 26 26 25 23 21 19 19 19 19 19 19 20 20 20 19 19 19
33 33 33 33 35 38 42 45 45 45 46 45 43 43 41 37 35 33 30 29 29 28 28 28 27 27 27 25 23 21 19 19 20 20 20 20 20 20 20 21 21 20
30 30 31 30 31 34 38 44 47 47 48 47 45 44 43 40 38 35 30 29 30 28 28 29 28 28 28 26 24 22 20 19 20 21 21 21 21 20 21 22 22 22
27 29 28 27 28 30 35 41 46 49 49 48 46 46 45 42 39 36 31 29 29 28 28 28 27 26 27 26 24 21 19 19 20 22 23 23 23 23 23 23 23 24
26 27 27 26 26 28 33 38 44 49 51 49 47 47 46 42 39 36 34 32 29 28 28 27 24 23 23 22 21 19 19 20 21 22 23 25 26 26 25 23 24 24
25 24 25 24 22 24 31 36 40 47 51 50 49 48 45 41 38 36 36 36 33 29 27 25 23 22 21 19 17 17 18 19 20 22 24 26 27 26 25 24 24 25
22 22 22 20 19 21 26 30 33 38 45 50 50 46 43 42 39 35 37 40 37 31 27 25 22 22 21 19 16 17 18 19 20 22 24 26 26 25 25 25 25 27
18 19 18 17 18 18 20 22 23 25 35 46 49 43 39 40 39 37 39 43 38 30 28 26 22 21 22 20 18 18 19 19 21 22 23 24 25 24 24 24 24 27
14 15 15 15 15 16 18 20 21 24 31 40 46 44 39 36 35 36 41 42 35 27 25 24 22 21 22 22 20 19 19 20 21 23 23 24 23 21 21 21 23 26
13 13 13 13 13 15 17 18 22 29 33 37 43 44 40 34 30 32 37 37 31 23 19 19 20 20 21 22 21 19 18 19 21 23 24 25 23 19 19 20 22 24
Wind_Direction
232 233 234 235 236 237 239 243 246 248 247 248 255 258 258 259 258 256 258 261 264 264 259 253 241 228 231 237 241 244 242 245 250 255 260 265 272 276 281 283 282 282
232 234 236 236 236 237 239 241 243 247 251 253 255 255 258 262 262 261 262 262 264 265 260 254 246 239 240 241 242 244 246 248 248 252 257 261 267 271 272 275 274 275
232 234 236 237 237 239 240 241 243 246 249 250 249 250 255 260 262 263 263 262 263 262 259 257 254 248 243 240 243 246 248 248 245 246 253 256 262 266 267 269 271 272
233 234 237 238 238 240 240 240 243 245 246 247 248 250 253 255 259 262 262 262 261 258 257 259 256 249 243 240 242 246 247 249 245 242 248 254 257 260 261 265 268 269
235 236 237 239 238 239 240 241 243 245 245 247 250 252 252 253 256 259 262 263 262 259 258 259 255 247 243 243 244 244 242 243 246 247 249 253 256 260 262 263 266 267
236 237 238 240 239 239 239 240 242 243 243 244 247 249 251 253 254 257 262 264 263 261 257 257 253 244 241 246 245 240 232 226 234 245 249 250 255 260 264 267 268 268
236 238 239 239 239 237 237 236 238 239 240 241 243 245 247 250 252 255 260 263 262 259 255 252 247 240 241 246 240 232 229 227 232 242 249 254 258 261 264 269 270 269
236 235 236 237 237 235 235 234 235 237 239 239 240 242 242 245 250 252 254 257 257 255 253 248 243 239 241 242 234 231 233 235 239 246 254 259 263 266 269 272 273 271
234 233 233 234 234 233 234 233 233 235 237 237 238 240 240 242 246 247 249 252 252 251 249 246 241 239 239 237 233 235 236 237 242 248 256 261 264 268 271 273 273 272
234 234 233 233 233 233 233 233 232 235 239 239 239 241 239 240 243 243 245 247 246 246 245 242 239 237 236 236 235 238 240 242 247 253 259 263 266 270 273 275 275 274
235 236 235 235 234 233 232 230 228 232 239 241 242 240 236 237 243 244 244 244 243 243 243 239 238 236 236 236 236 239 243 247 254 259 264 267 269 272 275 276 275 273
233 234 233 233 233 232 230 226 223 225 229 233 236 237 231 230 237 241 242 242 241 241 241 238 236 236 235 236 237 240 246 251 255 260 266 269 270 272 274 275 275 274
232 231 230 231 231 231 230 228 226 226 226 228 230 233 230 227 230 235 238 240 240 240 240 238 236 235 235 236 238 240 246 252 256 260 265 268 270 271 271 271 272 274
233 231 229 229 230 230 231 232 231 229 229 229 230 231 231 226 225 228 231 235 238 238 239 238 236 236 236 237 238 240 245 252 257 260 264 267 270 273 273 272 270 269
239 238 232 229 229 230 231 232 233 232 231 230 229 229 229 227 223 223 226 231 235 237 237 237 237 237 237 238 238 240 245 253 259 263 266 268 268 270 272 274 273 269
244 244 238 231 229 230 230 231 232 233 231 229 228 227 227 227 223 221 226 230 232 235 236 236 238 239 239 239 239 240 245 253 260 265 269 270 268 268 272 273 273 272
247 249 247 240 233 230 230 230 231 232 231 229 228 226 226 226 222 220 226 231 230 233 235 235 237 239 241 242 240 240 244 252 259 265 269 272 271 271 274 275 274 271
251 252 252 248 239 233 231 230 230 232 231 230 229 228 225 224 220 217 224 231 231 232 233 233 236 239 242 245 245 243 245 250 258 262 265 269 271 271 272 274 274 272
251 250 252 250 244 238 233 231 230 232 232 231 230 228 226 224 219 214 220 229 231 232 231 233 237 240 243 248 248 247 248 252 259 263 265 269 272 272 272 273 273 272
247 246 249 251 246 239 234 233 232 233 233 232 229 227 225 223 217 213 219 229 231 231 231 234 240 244 248 253 252 251 253 257 262 266 270 273 275 275 276 276 274 271
243 244 246 249 246 238 234 233 232 233 233 231 227 225 225 223 218 216 224 231 233 233 234 237 243 249 256 261 259 255 258 261 264 268 272 275 276 278 279 277 274 273
241 242 243 243 238 233 234 233 232 234 236 232 226 225 225 224 221 222 228 232 235 238 238 240 248 256 266 271 266 261 262 262 266 271 273 273 275 276 277 275 274 273
241 240 239 235 227 226 231 231 230 235 237 233 228 225 225 224 224 225 228 231 235 241 244 247 255 265 272 273 266 263 263 262 267 273 275 274 273 272 274 275 274 273
237 238 235 229 224 222 226 226 224 230 235 233 228 224 223 226 226 225 228 231 235 242 249 255 262 272 277 272 264 262 262 260 265 272 275 275 274 273 275 276 275 275
226 229 226 223 222 221 226 226 223 230 236 234 230 225 223 226 226 224 227 232 236 242 252 261 267 273 277 274 267 263 260 260 264 268 270 274 276 277 277 277 278 281
217 220 218 221 223 224 227 225 226 235 238 236 234 229 225 225 224 222 226 230 232 240 256 271 276 275 274 272 267 260 258 261 264 265 267 272 277 279 278 278 281 284
Height
1543 1544 1546 1548 1550 1552 1553 1554 1555 1556 1557 1558 1558 1558 1558 1559 1560 1560 1561 1561 1561 1561 1561 1562 1562 1562 1563 1563 1564 1564 1565 1566 1566 1567 1567 1567 1567 1567 1568 1568 1568 1568
1540 1541 1543 1545 1548 1550 1551 1553 1554 1554 1555 1556 1557 1557 1557 1558 1558 1559 1559 1560 1560 1561 1561 1561 1561 1561 1562 1562 1562 1563 1564 1564 1565 1565 1565 1566 1566 1566 1566 1566 1566 1566
1537 1539 1541 1543 1545 1547 1549 1550 1552 1552 1554 1554 1555 1556 1556 1556 1557 1557 1558 1558 1559 1560 1560 1560 1560 1560 1561 1561 1561 1561 1562 1562 1563 1563 1564 1564 1564 1564 1565 1565 1565 1565
1535 1537 1539 1541 1543 1545 1546 1548 1549 1550 1552 1553 1553 1554 1554 1555 1555 1556 1556 1557 1558 1559 1559 1559 1559 1559 1559 1559 1560 1560 1560 1561 1561 1562 1562 1562 1563 1563 1563 1563 1563 1563
1532 1534 1536 1539 1540 1542 1544 1546 1547 1548 1550 1550 1551 1552 1552 1553 1554 1554 1555 1556 1557 1557 1558 1558 1558 1558 1558 1558 1559 1559 1560 1560 1560 1560 1561 1561 1561 1561 1561 1561 1561 1562
1530 1532 1534 1536 1538 1540 1541 1543 1544 1545 1546 1547 1547 1549 1549 1550 1551 1552 1553 1554 1555 1556 1556 1556 1557 1557 1557 1557 1558 1558 1559 1560 1560 1560 1560 1560 1560 1560 1560 1560 1560 1560
1526 1528 1530 1532 1534 1537 1538 1539 1540 1541 1542 1543 1544 1546 1546 1547 1548 1549 1550 1551 1553 1554 1554 1555 1555 1556 1556 1556 1557 1558 1558 1559 1559 1559 1559 1559 1559 1559 1559 1559 1558 1558
1521 1523 1525 1528 1530 1533 1534 1535 1536 1538 1539 1540 1541 1542 1543 1544 1545 1547 1548 1549 1550 1551 1552 1553 1554 1554 1555 1555 1556 1557 1557 1557 1557 1557 1558 1558 1558 1558 1557 1557 1557 1556
1515 1517 1521 1524 1526 1529 1530 1532 1533 1535 1536 1537 1538 1539 1540 1541 1542 1543 1545 1546 1547 1549 1550 1551 1552 1552 1553 1554 1554 1555 1555 1556 1556 1556 1556 1556 1556 1556 1556 1555 1555 1554
1511 1514 1518 1521 1523 1525 1527 1529 1532 1534 1535 1536 1537 1537 1537 1538 1539 1540 1542 1543 1544 1546 1547 1548 1549 1550 1551 1552 1552 1553 1553 1554 1554 1554 1554 1554 1554 1554 1554 1553 1553 1553
1509 1512 1516 1518 1520 1521 1523 1526 1529 1531 1533 1535 1535 1534 1534 1535 1537 1538 1539 1540 1542 1543 1544 1545 1547 1548 1549 1550 1550 1551 1551 1552 1552 1552 1552 1552 1552 1552 1552 1552 1551 1551
1506 1508 1512 1514 1514 1515 1518 1520 1521 1522 1525 1527 1529 1529 1529 1530 1533 1535 1536 1538 1540 1541 1542 1543 1544 1545 1546 1547 1548 1549 1549 1550 1550 1550 1550 1550 1550 1550 1550 1550 1549 1548
1502 1505 1507 1507 1507 1510 1513 1514 1515 1516 1518 1520 1522 1524 1525 1526 1529 1531 1533 1535 1537 1538 1539 1541 1542 1543 1544 1545 1546 1546 1547 1547 1547 1548 1548 1547 1547 1547 1547 1547 1547 1546
1497 1501 1502 1502 1504 1506 1508 1509 1510 1512 1514 1516 1519 1521 1522 1523 1525 1527 1530 1531 1534 1535 1537 1538 1539 1540 1541 1542 1543 1544 1544 1545 1545 1545 1545 1545 1545 1545 1545 1545 1544 1543
1492 1495 1497 1500 1501 1502 1503 1504 1506 1507 1509 1512 1514 1516 1518 1519 1521 1524 1526 1527 1530 1532 1533 1535 1536 1537 1538 1539 1540 1541 1542 1543 1543 1543 1543 1543 1543 1543 1542 1542 1541 1541
1487 1489 1493 1496 1497 1498 1500 1501 1502 1504 1505 1507 1509 1512 1514 1516 1518 1521 1522 1524 1526 1528 1530 1531 1532 1534 1535 1536 1538 1539 1540 1541 1541 1541 1541 1541 1541 1540 1540 1539 1539 1538
1483 1484 1487 1490 1493 1494 1496 1498 1499 1500 1501 1503 1505 1508 1511 1514 1516 1519 1520 1522 1523 1524 1526 1527 1529 1530 1532 1533 1535 1537 1538 1538 1538 1538 1538 1538 1538 1537 1537 1537 1536 1536
1479 1481 1482 1485 1488 1490 1492 1494 1496 1496 1497 1500 1502 1505 1507 1510 1512 1515 1518 1520 1520 1521 1523 1524 1525 1527 1528 1530 1532 1534 1535 1535 1535 1536 1535 1535 1535 1535 1534 1534 1533 1533
1476 1477 1478 1480 1483 1485 1488 1490 1491 1492 1494 1496 1499 1501 1503 1505 1507 1510 1514 1516 1517 1518 1519 1521 1522 1524 1525 1527 1529 1530 1531 1532 1532 1532 1532 1532 1532 1532 1531 1531 1530 1530
1473 1473 1475 1476 1479 1482 1484 1485 1486 1488 1490 1492 1495 1497 1498 1500 1504 1507 1510 1513 1514 1515 1516 1518 1519 1521 1522 1524 1526 1527 1528 1529 1529 1529 1529 1529 1529 1528 1528 1528 1527 1527
1469 1470 1472 1473 1476 1479 1480 1481 1483 1485 1486 1489 1492 1493 1496 1499 1502 1505 1508 1510 1512 1513 1514 1515 1516 1518 1519 1521 1523 1524 1525 1526 1526 1526 1525 1525 1525 1525 1525 1524 1524 1524
1466 1468 1469 1471 1473 1475 1476 1478 1481 1482 1483 1486 1488 1489 1494 1499 1501 1502 1506 1508 1509 1510 1511 1513 1514 1515 1517 1518 1520 1521 1522 1522 1522 1522 1522 1522 1522 1522 1521 1521 1521 1520
1463 1465 1467 1469 1470 1472 1474 1476 1478 1480 1480 1483 1485 1487 1492 1496 1498 1500 1504 1505 1506 1508 1509 1511 1513 1513 1514 1515 1517 1518 1519 1519 1519 1519 1519 1519 1519 1519 1518 1518 1517 1516
1461 1463 1465 1466 1468 1470 1472 1474 1476 1477 1478 1480 1482 1486 1490 1492 1495 1499 1501 1502 1503 1506 1508 1510 1511 1511 1511 1512 1514 1515 1515 1515 1515 1516 1515 1515 1515 1516 1515 1514 1513 1512
1459 1461 1463 1464 1466 1468 1470 1472 1474 1475 1476 1478 1480 1483 1487 1490 1492 1497 1499 1499 1501 1504 1506 1508 1508 1508 1508 1509 1510 1511 1512 1512 1512 1512 1512 1512 1512 1512 1512 1511 1510 1509
1457 1459 1460 1463 1465 1467 1469 1470 1471 1472 1474 1476 1478 1480 1484 1488 1491 1495 1496 1496 1498 1502 1504 1505 1504 1504 1505 1505 1506 1508 1508 1508 1509 1509 1509 1509 1509 1509 1509 1508 1507 1506